{"data":{"norad_id":57718,"intl_designator":"2023-129W","name":"STARLINK-30338","alt_names":[],"object_type":"PAYLOAD","status":"ACTIVE","operator":null,"country":"US","launch_date":"2023-08-27","launch_site_code":"AFETR","launch_vehicle":null,"mission":null,"orbit_class":"UNKNOWN","rcs_meters":null,"size_class":null,"mass_kg":null,"dimensions":null,"purposes":["comms"],"wikipedia_slug":null,"has_3d_model":false,"image_url":null,"decayed_at":null,"tle_current":{"epoch":"2026-05-25T00:34:31.833984Z","epoch_age_seconds":76021,"freshness":"FRESH","line1":"1 57718U 23129W   26145.02397956 -.00000570  00000+0 -11210-4 0  9996","line2":"2 57718  43.0058  47.0787 0000852 266.6033  93.4721 15.27571685152353","mean_motion":15.27571685,"eccentricity":8.52e-5,"inclination_deg":43.0058,"raan_deg":47.0787,"arg_perigee_deg":266.6033,"mean_anomaly_deg":93.4721,"bstar":-1.121e-5,"rev_number":15235,"period_min":94.267261833935,"perigee_km":482.48941907719,"apogee_km":483.65856943061,"semimajor_km":6861.2109942539,"source":"CELESTRAK","updated_at":"2026-05-25T13:38:18.374952Z"}}}